When you browse on this site, cookies collect data to enhance your experience and personalize the content and advertising you see.
Visit our Privacy Policy to learn more. By continuing to use the site, you agree to this use of cookies and data.
  • In United Kingdom
  • List of Countries
  • For 7 days
  • Water Temperature
  • Weather Map
  • Weather Widgets
  • user-avatar
    Login

    Hourly Weather Bukowina Tatrzanska

    Today, 18 February, Tuesday

    Time Temperature Precipitation Wind Pressure Humidity
    00:00 +3°C° 0.2 mm 1 mps 686 mmHg 92%
    01:00 +4°C° 0 mm 1 mps 686 mmHg 94%
    02:00 +4°C° 1.2 mm 1 mps 686 mmHg 95%
    03:00 +2°C° 1.2 mm 2 mps 686 mmHg 96%
    04:00 +2°C° 1.2 mm 2 mps 686 mmHg 97%
    05:00 +2°C° 0.2 mm 2 mps 686 mmHg 96%
    06:00 +2°C° 0.2 mm 2 mps 686 mmHg 94%
    07:00 +1°C° 0 mm 2 mps 686 mmHg 93%
    08:00 +2°C° 0 mm 2 mps 687 mmHg 91%
    09:00 +2°C° 0 mm 3 mps 687 mmHg 89%
    10:00 +2°C° 0 mm 3 mps 688 mmHg 86%
    11:00 +3°C° 0.2 mm 4 mps 688 mmHg 84%
    12:00 +3°C° 0.2 mm 4 mps 688 mmHg 82%
    13:00 +2°C° 0 mm 5 mps 688 mmHg 80%
    14:00 +1°C° 0.1 mm 4 mps 688 mmHg 81%
    15:00 +2°C° 0.1 mm 3 mps 687 mmHg 82%
    16:00 +2°C° 0.1 mm 2 mps 687 mmHg 83%
    17:00 +2°C° 0.1 mm 2 mps 688 mmHg 85%
    18:00 +1°C° 0.1 mm 2 mps 688 mmHg 87%
    19:00 -1°C° 0.1 mm 2 mps 688 mmHg 89%
    20:00 -2°C° 0 mm 2 mps 688 mmHg 90%
    21:00 -2°C° 0 mm 2 mps 688 mmHg 90%
    22:00 -2°C° 0 mm 2 mps 688 mmHg 90%
    23:00 -3°C° 0 mm 2 mps 688 mmHg 90%

    Tomorrow, 19 February, Wednesday

    Time Temperature Precipitation Wind Pressure Humidity
    00:00 -1°C° 0 mm 1 mps 688 mmHg 90%
    01:00 -1°C° 0 mm 1 mps 688 mmHg 90%
    02:00 -1°C° 0 mm 1 mps 688 mmHg 89%
    03:00 -1°C° 0 mm 1 mps 687 mmHg 89%
    04:00 -2°C° 0 mm 1 mps 687 mmHg 89%
    05:00 -2°C° 0 mm 1 mps 686 mmHg 88%
    06:00 -2°C° 0 mm 1 mps 686 mmHg 87%
    07:00 -2°C° 0 mm 1 mps 686 mmHg 86%
    08:00 -2°C° 0 mm 2 mps 686 mmHg 81%
    09:00 -1°C° 0 mm 2 mps 686 mmHg 76%
    10:00 +1°C° 0 mm 2 mps 686 mmHg 71%
    11:00 +2°C° 0 mm 2 mps 686 mmHg 70%
    12:00 +2°C° 0 mm 2 mps 685 mmHg 68%
    13:00 +2°C° 0 mm 3 mps 685 mmHg 67%
    14:00 +2°C° 0 mm 2 mps 685 mmHg 71%
    15:00 +2°C° 0 mm 2 mps 684 mmHg 75%
    16:00 +1°C° 0 mm 2 mps 684 mmHg 79%
    17:00 +1°C° 0.1 mm 2 mps 684 mmHg 83%
    18:00 -1°C° 0.1 mm 2 mps 684 mmHg 86%
    19:00 -2°C° 0.1 mm 2 mps 683 mmHg 90%
    20:00 -2°C° 0.5 mm 2 mps 684 mmHg 91%
    21:00 -2°C° 0.5 mm 2 mps 684 mmHg 93%
    22:00 -2°C° 0.5 mm 3 mps 684 mmHg 94%
    23:00 -3°C° 0.2 mm 2 mps 685 mmHg 94%

    Day after tomorrow, 20 February, Thursday

    Time Temperature Precipitation Wind Pressure Humidity
    00:00 -3°C° 0.2 mm 2 mps 685 mmHg 94%
    01:00 -4°C° 0.2 mm 2 mps 685 mmHg 93%
    02:00 -4°C° 0.1 mm 2 mps 685 mmHg 93%
    03:00 -4°C° 0.1 mm 2 mps 685 mmHg 93%
    04:00 -4°C° 0.1 mm 2 mps 685 mmHg 93%
    05:00 -4°C° 0.1 mm 2 mps 685 mmHg 93%
    06:00 -4°C° 0.1 mm 2 mps 686 mmHg 93%
    07:00 -4°C° 0.1 mm 2 mps 686 mmHg 93%
    08:00 -4°C° 0 mm 2 mps 686 mmHg 88%
    09:00 -3°C° 0 mm 2 mps 687 mmHg 82%
    10:00 -2°C° 0 mm 2 mps 687 mmHg 76%
    11:00 +1°C° 0 mm 1 mps 687 mmHg 75%
    12:00 +1°C° 0 mm 1 mps 687 mmHg 75%
    13:00 +1°C° 0 mm 1 mps 687 mmHg 74%
    14:00 +1°C° 0.2 mm 1 mps 687 mmHg 77%
    15:00 0°C° 0.2 mm 1 mps 687 mmHg 80%
    16:00 0°C° 0.2 mm 1 mps 686 mmHg 82%
    17:00 -1°C° 0.1 mm 1 mps 686 mmHg 85%
    18:00 -2°C° 0.1 mm 1 mps 686 mmHg 88%
    19:00 -3°C° 0.1 mm 1 mps 686 mmHg 90%
    20:00 -3°C° 0 mm 1 mps 686 mmHg 89%
    21:00 -3°C° 0 mm 1 mps 686 mmHg 88%
    22:00 -4°C° 0 mm 1 mps 686 mmHg 87%
    23:00 -4°C° 0 mm 1 mps 686 mmHg 87%

    21 February, Friday

    Time Temperature Precipitation Wind Pressure Humidity
    00:00 -4°C° 0 mm 1 mps 686 mmHg 88%
    01:00 -6°C° 0 mm 2 mps 686 mmHg 88%
    02:00 -6°C° 0 mm 2 mps 685 mmHg 88%
    03:00 -6°C° 0 mm 2 mps 685 mmHg 88%
    04:00 -6°C° 0 mm 2 mps 685 mmHg 88%
    05:00 -5°C° 0 mm 2 mps 685 mmHg 87%
    06:00 -5°C° 0 mm 2 mps 685 mmHg 86%
    07:00 -4°C° 0 mm 2 mps 685 mmHg 86%
    14:00 -3°C° 0.3 mm 4 mps 687 mmHg 82%
    15:00 -3°C° 0.3 mm 4 mps 687 mmHg 79%
    16:00 -3°C° 0.3 mm 4 mps 688 mmHg 75%
    17:00 -4°C° 0.2 mm 4 mps 688 mmHg 81%
    18:00 -4°C° 0.2 mm 4 mps 689 mmHg 87%
    19:00 -5°C° 0.2 mm 3 mps 690 mmHg 93%
    20:00 -5°C° 0.2 mm 3 mps 690 mmHg 93%
    21:00 -5°C° 0.2 mm 3 mps 691 mmHg 93%
    22:00 -4°C° 0.2 mm 2 mps 691 mmHg 94%
    23:00 -4°C° 0.2 mm 2 mps 691 mmHg 94%

    22 February, Saturday

    Time Temperature Precipitation Wind Pressure Humidity
    00:00 -4°C° 0.2 mm 2 mps 691 mmHg 95%
    01:00 -4°C° 0.2 mm 2 mps 691 mmHg 95%
    02:00 -3°C° 0 mm 1 mps 691 mmHg 95%
    03:00 -3°C° 0 mm 1 mps 691 mmHg 94%
    04:00 -4°C° 0 mm 1 mps 692 mmHg 94%
    05:00 -4°C° 0 mm 1 mps 692 mmHg 92%
    06:00 -4°C° 0 mm 1 mps 692 mmHg 90%
    07:00 -4°C° 0 mm 1 mps 692 mmHg 88%
    08:00 -2°C° 0 mm 1 mps 692 mmHg 82%
    09:00 -2°C° 0 mm 2 mps 692 mmHg 76%
    10:00 -1°C° 0 mm 2 mps 693 mmHg 69%
    11:00 +1°C° 0 mm 2 mps 693 mmHg 70%
    12:00 +1°C° 0 mm 2 mps 693 mmHg 71%
    13:00 +2°C° 0 mm 2 mps 693 mmHg 72%
    14:00 +2°C° 0 mm 2 mps 692 mmHg 75%
    15:00 +1°C° 0 mm 2 mps 692 mmHg 77%
    16:00 +1°C° 0 mm 2 mps 691 mmHg 80%
    17:00 -1°C° 0 mm 2 mps 691 mmHg 82%
    18:00 -2°C° 0 mm 2 mps 690 mmHg 83%
    19:00 -4°C° 0 mm 3 mps 690 mmHg 85%
    20:00 -2°C° 0 mm 3 mps 690 mmHg 85%
    21:00 -2°C° 0 mm 3 mps 690 mmHg 84%
    22:00 -2°C° 0 mm 3 mps 689 mmHg 84%
    23:00 -1°C° 0 mm 3 mps 689 mmHg 81%

    23 February, Sunday

    Time Temperature Precipitation Wind Pressure Humidity
    00:00 -1°C° 0 mm 3 mps 689 mmHg 78%
    01:00 -1°C° 0 mm 3 mps 689 mmHg 75%
    02:00 0°C° 0.1 mm 3 mps 689 mmHg 78%
    03:00 0°C° 0.1 mm 3 mps 688 mmHg 81%
    04:00 0°C° 0.1 mm 3 mps 688 mmHg 84%
    05:00 0°C° 0.4 mm 3 mps 688 mmHg 87%
    06:00 0°C° 0.4 mm 3 mps 688 mmHg 90%
    07:00 0°C° 0.4 mm 3 mps 688 mmHg 93%
    08:00 +1°C° 0.1 mm 3 mps 688 mmHg 92%
    09:00 0°C° 0.1 mm 4 mps 688 mmHg 91%
    10:00 +1°C° 0.1 mm 4 mps 688 mmHg 90%
    11:00 +1°C° 0 mm 4 mps 687 mmHg 90%
    12:00 +1°C° 0 mm 4 mps 687 mmHg 90%
    13:00 +3°C° 0 mm 3 mps 687 mmHg 90%
    14:00 +3°C° 0.1 mm 3 mps 686 mmHg 91%
    15:00 +2°C° 0.1 mm 3 mps 686 mmHg 92%
    16:00 +2°C° 0.1 mm 3 mps 685 mmHg 93%
    17:00 +2°C° 0.2 mm 3 mps 685 mmHg 94%
    18:00 +2°C° 0.2 mm 3 mps 685 mmHg 94%
    19:00 +2°C° 0.2 mm 3 mps 684 mmHg 94%
    20:00 +1°C° 0.8 mm 4 mps 683 mmHg 94%
    21:00 +3°C° 0.8 mm 4 mps 683 mmHg 94%
    22:00 +2°C° 0.8 mm 5 mps 682 mmHg 94%
    23:00 +2°C° 1.2 mm 5 mps 681 mmHg 93%
    Show more